time, Switch, Flow(0), Analog(2)
yyyy/mm/dd HH:MM:SS.fff, True=FILTERED|False=TOTAL, L/min, V
2023/07/07 08:00:02.057, True, 5.065, 0.155871
2023/07/07 08:00:02.562, True, 4.632, 0.153658
2023/07/07 08:00:03.066, True, 4.644, 0.155337
2023/07/07 08:00:03.562, True, 4.043, 0.153887
2023/07/07 08:00:04.066, True, 2.653, 0.155108
2023/07/07 08:00:04.570, True, 1.326, 0.154650
2023/07/07 08:00:05.066, True, 1.011, 0.154650
2023/07/07 08:00:05.570, True, 0.663, 0.156329
2023/07/07 08:00:06.074, True, 0.663, 0.153429
2023/07/07 08:00:06.570, True, 0.674, 0.155642
2023/07/07 08:00:07.074, True, 0.994, 0.155489
2023/07/07 08:00:07.578, True, 0.663, 0.154269
2023/07/07 08:00:08.074, True, 0.674, 0.154192
2023/07/07 08:00:08.578, True, 0.995, 0.153506
2023/07/07 08:00:09.082, True, 0.663, 0.156023
2023/07/07 08:00:09.578, True, 0.674, 0.154726
2023/07/07 08:00:10.082, True, 0.663, 0.155337
2023/07/07 08:00:10.586, True, 0.663, 0.154116
2023/07/07 08:00:11.082, True, 1.011, 0.154726
2023/07/07 08:00:11.586, True, 0.663, 0.155108
2023/07/07 08:00:12.090, True, 0.664, 0.154040
2023/07/07 08:00:12.586, True, 0.673, 0.154879
2023/07/07 08:00:13.090, True, 0.995, 0.153429
2023/07/07 08:00:13.594, True, 0.663, 0.151904
2023/07/07 08:00:14.090, True, 0.674, 0.152895
2023/07/07 08:00:14.594, True, 0.663, 0.154803
2023/07/07 08:00:15.090, True, 0.674, 0.156558
2023/07/07 08:00:15.594, True, 0.665, 0.153582
2023/07/07 08:00:16.098, True, 0.662, 0.154498
2023/07/07 08:00:16.594, True, 0.675, 0.152819
2023/07/07 08:00:17.098, True, 0.662, 0.153811
2023/07/07 08:00:17.602, True, 0.997, 0.154498
2023/07/07 08:00:18.098, True, 0.672, 0.155108
2023/07/07 08:00:18.602, True, 0.663, 0.155871
2023/07/07 08:00:19.106, True, 0.663, 0.154040
2023/07/07 08:00:19.602, True, 0.674, 0.154803
2023/07/07 08:00:20.106, True, 0.995, 0.155566
2023/07/07 08:00:20.610, True, 0.663, 0.153201
2023/07/07 08:00:21.106, True, 0.675, 0.154879
2023/07/07 08:00:21.609, True, 0.662, 0.154269
2023/07/07 08:00:22.114, True, 0.664, 0.154498
2023/07/07 08:00:22.610, True, 0.673, 0.153277
2023/07/07 08:00:23.114, True, 0.663, 0.152667
2023/07/07 08:00:23.618, True, 0.663, 0.156100
2023/07/07 08:00:24.114, True, 1.011, 0.154803
2023/07/07 08:00:24.618, True, 0.663, 0.155871
2023/07/07 08:00:25.122, True, 0.663, 0.154955
2023/07/07 08:00:25.618, True, 0.674, 0.156176
2023/07/07 08:00:26.122, True, 0.663, 0.153735
2023/07/07 08:00:26.626, True, 0.995, 0.153124
2023/07/07 08:00:27.122, True, 0.674, 0.155032
2023/07/07 08:00:27.626, True, 0.664, 0.154879
2023/07/07 08:00:28.129, True, 0.662, 0.155718
2023/07/07 08:00:28.626, True, 0.674, 0.155795
2023/07/07 08:00:29.130, True, 0.663, 0.156558
2023/07/07 08:00:29.634, True, 0.663, 0.154879
2023/07/07 08:00:30.130, True, 1.011, 0.156939
2023/07/07 08:00:30.634, True, 0.663, 0.152590
2023/07/07 08:00:31.138, True, 0.663, 0.154803
2023/07/07 08:00:31.634, True, 0.674, 0.155184
2023/07/07 08:00:32.138, True, 0.663, 0.154574
2023/07/07 08:00:32.642, True, 0.663, 0.154116
2023/07/07 08:00:33.146, True, 0.995, 0.154345
2023/07/07 08:00:33.642, True, 0.674, 0.154803
2023/07/07 08:00:34.146, True, 0.663, 0.155871
2023/07/07 08:00:34.650, True, 0.663, 0.155795
2023/07/07 08:00:35.146, True, 0.674, 0.154040
2023/07/07 08:00:35.650, True, 0.994, 0.154803
2023/07/07 08:00:36.153, True, 0.663, 0.154574
2023/07/07 08:00:36.650, True, 0.674, 0.153811
2023/07/07 08:00:37.154, True, 0.663, 0.153506
2023/07/07 08:00:37.658, True, 0.663, 0.155413
2023/07/07 08:00:38.154, True, 0.674, 0.155108
2023/07/07 08:00:38.658, True, 0.995, 0.154345
2023/07/07 08:00:39.154, True, 0.674, 0.153658
2023/07/07 08:00:39.658, True, 0.663, 0.155642
2023/07/07 08:00:40.162, True, 0.663, 0.156786
2023/07/07 08:00:40.658, True, 0.675, 0.156176
2023/07/07 08:00:41.162, True, 0.662, 0.154498
2023/07/07 08:00:41.665, True, 0.664, 0.153811
2023/07/07 08:00:42.162, True, 0.673, 0.155947
2023/07/07 08:00:42.666, True, 0.995, 0.156100
2023/07/07 08:00:43.169, True, 0.663, 0.155032
2023/07/07 08:00:43.665, True, 0.674, 0.153582
2023/07/07 08:00:44.170, True, 0.663, 0.155108
2023/07/07 08:00:44.674, True, 0.663, 0.155413
2023/07/07 08:00:45.169, True, 0.674, 0.154116
2023/07/07 08:00:45.674, True, 0.995, 0.154650
2023/07/07 08:00:46.178, True, 0.663, 0.153429
2023/07/07 08:00:46.674, True, 0.674, 0.153201
2023/07/07 08:00:47.177, True, 0.664, 0.155413
2023/07/07 08:00:47.674, True, 1.009, 0.154726
2023/07/07 08:00:48.177, True, 0.664, 0.155489
2023/07/07 08:00:48.682, True, 0.662, 0.153429
2023/07/07 08:00:49.186, True, 0.663, 0.154421
2023/07/07 08:00:49.682, True, 0.674, 0.153964
2023/07/07 08:00:50.186, True, 0.995, 0.155032
2023/07/07 08:00:50.681, True, 0.674, 0.154574
2023/07/07 08:00:51.186, True, 0.663, 0.155184
2023/07/07 08:00:51.690, True, 0.663, 0.155566
2023/07/07 08:00:52.194, True, 0.663, 0.155184
2023/07/07 08:00:52.690, True, 0.674, 0.154803
2023/07/07 08:00:53.194, True, 0.996, 0.153964
2023/07/07 08:00:53.689, True, 0.675, 0.152209
2023/07/07 08:00:54.194, True, 0.662, 0.156023
2023/07/07 08:00:54.698, True, 0.663, 0.154803
2023/07/07 08:00:55.202, True, 0.664, 0.155795
2023/07/07 08:00:55.697, True, 0.674, 0.155108
2023/07/07 08:00:56.202, True, 0.994, 0.154955
2023/07/07 08:00:56.706, True, 0.663, 0.155413
2023/07/07 08:00:57.202, True, 0.674, 0.155871
2023/07/07 08:00:57.706, True, 0.663, 0.154726
2023/07/07 08:00:58.210, True, 0.663, 0.156863
2023/07/07 08:00:58.706, True, 0.674, 0.152972
2023/07/07 08:00:59.210, True, 0.995, 0.155947
2023/07/07 08:00:59.714, True, 0.663, 0.154040
2023/07/07 08:01:00.210, True, 0.675, 0.155413
2023/07/07 08:01:00.714, True, 0.662, 0.153582
2023/07/07 08:01:01.218, True, 0.663, 0.155642
2023/07/07 08:01:01.714, True, 0.675, 0.154726
2023/07/07 08:01:02.218, True, 0.662, 0.154650
2023/07/07 08:01:02.722, True, 0.663, 0.155261
2023/07/07 08:01:03.218, True, 1.013, 0.152819
2023/07/07 08:01:03.722, True, 0.662, 0.155947
2023/07/07 08:01:04.226, True, 0.663, 0.154421
2023/07/07 08:01:04.722, True, 0.674, 0.155642
2023/07/07 08:01:05.226, True, 0.663, 0.154192
2023/07/07 08:01:05.722, True, 1.011, 0.154879
2023/07/07 08:01:06.225, True, 0.664, 0.154574
2023/07/07 08:01:06.730, True, 0.662, 0.154726
2023/07/07 08:01:07.234, True, 0.664, 0.154040
2023/07/07 08:01:07.730, True, 0.673, 0.155642
2023/07/07 08:01:08.234, True, 0.664, 0.155642
2023/07/07 08:01:08.738, True, 0.993, 0.156405
2023/07/07 08:01:09.234, True, 0.674, 0.154345
2023/07/07 08:01:09.738, True, 0.663, 0.153887
2023/07/07 08:01:10.234, True, 0.674, 0.155184
2023/07/07 08:01:10.738, True, 0.663, 0.155795
2023/07/07 08:01:11.242, True, 0.663, 0.154269
2023/07/07 08:01:11.738, True, 0.674, 0.155413
2023/07/07 08:01:12.242, True, 0.995, 0.157931
2023/07/07 08:01:12.746, True, 0.664, 0.153887
2023/07/07 08:01:13.242, True, 0.673, 0.155108
2023/07/07 08:01:13.746, True, 0.663, 0.153811
2023/07/07 08:01:14.250, True, 0.663, 0.156634
2023/07/07 08:01:14.746, True, 0.674, 0.156634
2023/07/07 08:01:15.250, True, 0.663, 0.153658
2023/07/07 08:01:15.754, True, 0.996, 0.156710
2023/07/07 08:01:16.250, True, 0.674, 0.156023
2023/07/07 08:01:16.754, True, 0.664, 0.154421
2023/07/07 08:01:17.258, True, 0.662, 0.154726
2023/07/07 08:01:17.754, True, 0.674, 0.155337
2023/07/07 08:01:18.258, True, 0.663, 0.154421
2023/07/07 08:01:18.762, True, 0.663, 0.156252
2023/07/07 08:01:19.258, True, 1.011, 0.156252
2023/07/07 08:01:19.762, True, 0.663, 0.156481
2023/07/07 08:01:20.258, True, 0.674, 0.155413
2023/07/07 08:01:20.762, True, 0.663, 0.156252
2023/07/07 08:01:21.266, True, 0.665, 0.153887
2023/07/07 08:01:21.770, True, 0.331, 0.154650
2023/07/07 08:01:22.266, True, 0.674, 0.157092
2023/07/07 08:01:22.770, True, 0.995, 0.157321
2023/07/07 08:01:23.274, True, 0.663, 0.156405
2023/07/07 08:01:23.770, True, 0.674, 0.158083
2023/07/07 08:01:24.274, True, 0.663, 0.156558
2023/07/07 08:01:24.770, True, 0.674, 0.156252
2023/07/07 08:01:25.274, True, 0.663, 0.157778
2023/07/07 08:01:25.778, True, 0.664, 0.157855
2023/07/07 08:01:26.274, True, 1.010, 0.158999
2023/07/07 08:01:26.778, True, 0.663, 0.157168
2023/07/07 08:01:27.282, True, 0.663, 0.158999
2023/07/07 08:01:27.778, True, 0.674, 0.156558
2023/07/07 08:01:28.282, True, 0.663, 0.157549
2023/07/07 08:01:28.786, True, 0.663, 0.156634
2023/07/07 08:01:29.290, True, 0.663, 0.156786
2023/07/07 08:01:29.786, True, 0.674, 0.156176
2023/07/07 08:01:30.289, True, 0.663, 0.157244
2023/07/07 08:01:30.794, True, 0.663, 0.156176
2023/07/07 08:01:31.289, True, 0.674, 0.156710
2023/07/07 08:01:31.794, True, 0.663, 0.157855
2023/07/07 08:01:32.290, True, 0.674, 0.157855
2023/07/07 08:01:32.794, True, 0.663, 0.158312
2023/07/07 08:01:33.298, True, 0.664, 0.158389
2023/07/07 08:01:33.802, True, 0.994, 0.156100
2023/07/07 08:01:34.298, True, 0.674, 0.156405
2023/07/07 08:01:34.802, True, 0.663, 0.159533
2023/07/07 08:01:35.298, True, 0.674, 0.157397
2023/07/07 08:01:35.802, True, 0.663, 0.159152
2023/07/07 08:01:36.306, True, 0.663, 0.158389
2023/07/07 08:01:36.810, True, 0.663, 0.157931
2023/07/07 08:01:37.306, True, 0.674, 0.159762
2023/07/07 08:01:37.810, True, 0.663, 0.159686
2023/07/07 08:01:38.314, True, 0.995, 0.159533
2023/07/07 08:01:38.810, True, 0.674, 0.157549
2023/07/07 08:01:39.314, True, 0.663, 0.159533
2023/07/07 08:01:39.810, True, 0.674, 0.159609
2023/07/07 08:01:40.314, True, 0.663, 0.160372
2023/07/07 08:01:40.818, True, 0.663, 0.162051
2023/07/07 08:01:41.322, True, 0.663, 0.159838
2023/07/07 08:01:41.818, True, 0.674, 0.158007
2023/07/07 08:01:42.322, True, 0.995, 0.160449
2023/07/07 08:01:42.826, True, 0.663, 0.158999
2023/07/07 08:01:43.322, True, 0.674, 0.159686
2023/07/07 08:01:43.826, True, 0.663, 0.159152
2023/07/07 08:01:44.330, True, 0.663, 0.158923
2023/07/07 08:01:44.826, True, 0.674, 0.162356
2023/07/07 08:01:45.330, True, 0.663, 0.160983
2023/07/07 08:01:45.834, True, 0.663, 0.161517
2023/07/07 08:01:46.330, True, 0.674, 0.159152
2023/07/07 08:01:46.834, True, 0.663, 0.159991
2023/07/07 08:01:47.338, True, 0.663, 0.160372
2023/07/07 08:01:47.834, True, 0.674, 0.161288
2023/07/07 08:01:48.337, True, 0.663, 0.160296
2023/07/07 08:01:48.842, True, 0.995, 0.160601
2023/07/07 08:01:49.346, True, 0.663, 0.161212
2023/07/07 08:01:49.842, True, 0.674, 0.162203
2023/07/07 08:01:50.346, True, 0.663, 0.160143
2023/07/07 08:01:50.850, True, 0.663, 0.161975
2023/07/07 08:01:51.346, True, 0.674, 0.160983
2023/07/07 08:01:51.850, True, 0.663, 0.160983
2023/07/07 08:01:52.346, True, 0.674, 0.158770
2023/07/07 08:01:52.849, True, 0.663, 0.160525
2023/07/07 08:01:53.354, True, 0.663, 0.161440
2023/07/07 08:01:53.850, True, 1.011, 0.160449
2023/07/07 08:01:54.354, True, 0.663, 0.161517
2023/07/07 08:01:54.858, True, 0.663, 0.160143
2023/07/07 08:01:55.362, True, 0.663, 0.161135
2023/07/07 08:01:55.858, True, 0.674, 0.162890
2023/07/07 08:01:56.362, True, 0.663, 0.163577
2023/07/07 08:01:56.858, True, 1.011, 0.161593
2023/07/07 08:01:57.362, True, 0.663, 0.162966
2023/07/07 08:01:57.866, True, 0.663, 0.160830
2023/07/07 08:01:58.362, True, 0.674, 0.163195
2023/07/07 08:01:58.866, True, 0.663, 0.158770
2023/07/07 08:01:59.370, True, 0.663, 0.160830
2023/07/07 08:01:59.874, True, 0.663, 0.162127
2023/07/07 08:02:00.370, True, 0.674, 0.163577
2023/07/07 08:02:00.874, True, 0.663, 0.161440
2023/07/07 08:02:01.370, True, 1.011, 0.162356
2023/07/07 08:02:01.874, True, 0.663, 0.161517
2023/07/07 08:02:02.378, True, 0.663, 0.162203
2023/07/07 08:02:02.874, True, 0.674, 0.162356
2023/07/07 08:02:03.378, True, 0.663, 0.158694
2023/07/07 08:02:03.882, True, 0.994, 0.159686
2023/07/07 08:02:04.378, True, 0.674, 0.161593
2023/07/07 08:02:04.882, True, 0.663, 0.162814
2023/07/07 08:02:05.386, True, 0.663, 0.163195
2023/07/07 08:02:05.882, True, 0.674, 0.161364
2023/07/07 08:02:06.386, True, 0.663, 0.159533
2023/07/07 08:02:06.890, True, 0.663, 0.160296
2023/07/07 08:02:07.386, True, 0.674, 0.163043
2023/07/07 08:02:07.890, True, 0.663, 0.161975
2023/07/07 08:02:08.394, True, 0.995, 0.162737
2023/07/07 08:02:08.890, True, 0.674, 0.161517
2023/07/07 08:02:09.394, True, 0.663, 0.162661
2023/07/07 08:02:09.898, True, 0.664, 0.159609
2023/07/07 08:02:10.394, True, 0.673, 0.162661
2023/07/07 08:02:10.898, True, 0.663, 0.160372
2023/07/07 08:02:11.402, True, 0.664, 0.162585
2023/07/07 08:02:11.898, True, 0.673, 0.161975
2023/07/07 08:02:12.402, True, 0.996, 0.163577
2023/07/07 08:02:12.906, True, 0.662, 0.162280
2023/07/07 08:02:13.402, True, 0.674, 0.159762
2023/07/07 08:02:13.906, True, 0.664, 0.161212
2023/07/07 08:02:14.410, True, 0.663, 0.162966
2023/07/07 08:02:14.906, True, 0.674, 0.161212
2023/07/07 08:02:15.410, True, 0.995, 0.161212
2023/07/07 08:02:15.906, True, 0.674, 0.161746
2023/07/07 08:02:16.410, True, 0.663, 0.162737
2023/07/07 08:02:16.913, True, 0.664, 0.163043
2023/07/07 08:02:17.418, True, 0.663, 0.162585
2023/07/07 08:02:17.914, True, 0.673, 0.163195
2023/07/07 08:02:18.418, True, 0.663, 0.161898
2023/07/07 08:02:18.922, True, 0.664, 0.160525
2023/07/07 08:02:19.418, True, 1.011, 0.162814
2023/07/07 08:02:19.922, True, 0.663, 0.164187
2023/07/07 08:02:20.426, True, 0.663, 0.162127
2023/07/07 08:02:20.922, True, 0.674, 0.160678
2023/07/07 08:02:21.425, True, 0.662, 0.162280
2023/07/07 08:02:21.929, True, 0.664, 0.161440
2023/07/07 08:02:22.426, True, 1.009, 0.162585
2023/07/07 08:02:22.930, True, 0.663, 0.162280
2023/07/07 08:02:23.434, True, 0.663, 0.159380
2023/07/07 08:02:23.938, True, 0.664, 0.161059
2023/07/07 08:02:24.434, True, 0.674, 0.162737
2023/07/07 08:02:24.938, True, 0.662, 0.163348
2023/07/07 08:02:25.442, True, 0.663, 0.163119
2023/07/07 08:02:25.938, True, 0.675, 0.161593
2023/07/07 08:02:26.442, True, 0.663, 0.164645
2023/07/07 08:02:26.946, True, 0.993, 0.163500
2023/07/07 08:02:27.450, True, 0.663, 0.161746
2023/07/07 08:02:27.946, True, 0.674, 0.163043
2023/07/07 08:02:28.450, True, 0.664, 0.160601
2023/07/07 08:02:28.946, True, 0.674, 0.162203
2023/07/07 08:02:29.449, True, 0.993, 0.161288
2023/07/07 08:02:29.954, True, 0.663, 0.163272
2023/07/07 08:02:30.458, True, 0.663, 0.160906
2023/07/07 08:02:30.954, True, 0.674, 0.162509
2023/07/07 08:02:31.458, True, 0.663, 0.161212
2023/07/07 08:02:31.962, True, 0.663, 0.162966
2023/07/07 08:02:32.466, True, 0.663, 0.164721
2023/07/07 08:02:32.962, True, 0.674, 0.163729
2023/07/07 08:02:33.466, True, 0.663, 0.161364
2023/07/07 08:02:33.969, True, 0.663, 0.161440
2023/07/07 08:02:34.466, True, 0.674, 0.162356
2023/07/07 08:02:34.970, True, 0.995, 0.163424
2023/07/07 08:02:35.474, True, 0.663, 0.162432
2023/07/07 08:02:35.970, True, 0.675, 0.163882
2023/07/07 08:02:36.474, True, 0.663, 0.163653
2023/07/07 08:02:36.970, True, 0.674, 0.161364
2023/07/07 08:02:37.474, True, 0.995, 0.163653
2023/07/07 08:02:37.978, True, 0.663, 0.161975
2023/07/07 08:02:38.474, True, 0.674, 0.162814
2023/07/07 08:02:38.978, True, 0.663, 0.162509
2023/07/07 08:02:39.482, True, 0.663, 0.161593
2023/07/07 08:02:39.978, True, 0.674, 0.163424
2023/07/07 08:02:40.482, True, 0.663, 0.163195
2023/07/07 08:02:40.986, True, 0.663, 0.160830
2023/07/07 08:02:41.490, True, 0.663, 0.161975
2023/07/07 08:02:41.986, True, 0.674, 0.162737
2023/07/07 08:02:42.490, True, 0.663, 0.162203
2023/07/07 08:02:42.986, True, 0.674, 0.164569
2023/07/07 08:02:43.490, True, 0.663, 0.162356
2023/07/07 08:02:43.994, True, 0.663, 0.162585
2023/07/07 08:02:44.490, True, 0.674, 0.162966
2023/07/07 08:02:44.994, True, 0.995, 0.163500
2023/07/07 08:02:45.498, True, 0.663, 0.162127
2023/07/07 08:02:45.994, True, 0.674, 0.164034
2023/07/07 08:02:46.498, True, 0.663, 0.162051
2023/07/07 08:02:47.001, True, 0.664, 0.163043
2023/07/07 08:02:47.498, True, 0.673, 0.162661
2023/07/07 08:02:48.002, True, 0.663, 0.163272
2023/07/07 08:02:48.506, True, 0.995, 0.161822
2023/07/07 08:02:49.002, True, 0.674, 0.160449
2023/07/07 08:02:49.506, True, 0.663, 0.164569
2023/07/07 08:02:50.010, True, 0.663, 0.161593
2023/07/07 08:02:50.506, True, 0.674, 0.163119
2023/07/07 08:02:51.010, True, 0.663, 0.163882
2023/07/07 08:02:51.514, True, 0.663, 0.162280
2023/07/07 08:02:52.010, True, 0.674, 0.161593
2023/07/07 08:02:52.514, True, 0.663, 0.162432
2023/07/07 08:02:53.018, True, 0.663, 0.164111
2023/07/07 08:02:53.522, True, 0.995, 0.161288
2023/07/07 08:02:54.018, True, 0.674, 0.163500
2023/07/07 08:02:54.522, True, 0.663, 0.163195
2023/07/07 08:02:55.026, True, 0.663, 0.163653
2023/07/07 08:02:55.522, True, 0.674, 0.162127
2023/07/07 08:02:56.026, True, 0.664, 0.163348
2023/07/07 08:02:56.530, True, 0.664, 0.164034
2023/07/07 08:02:57.026, True, 0.673, 0.166323
2023/07/07 08:02:57.530, True, 0.994, 0.164187
2023/07/07 08:02:58.026, True, 0.674, 0.162356
2023/07/07 08:02:58.530, True, 0.663, 0.163577
2023/07/07 08:02:59.034, True, 0.663, 0.162432
2023/07/07 08:02:59.530, True, 0.674, 0.162509
2023/07/07 08:03:00.034, True, 0.663, 0.162737
2023/07/07 08:03:00.538, True, 0.663, 0.162203
2023/07/07 08:03:01.034, True, 1.012, 0.162509
2023/07/07 08:03:01.538, True, 0.663, 0.161746
2023/07/07 08:03:02.042, True, 0.663, 0.162737
2023/07/07 08:03:02.538, True, 0.674, 0.160830
2023/07/07 08:03:03.042, True, 0.663, 0.164263
2023/07/07 08:03:03.546, True, 0.663, 0.161898
2023/07/07 08:03:04.042, True, 0.674, 0.161440
2023/07/07 08:03:04.546, True, 0.995, 0.162051
2023/07/07 08:03:05.042, True, 0.674, 0.163653
2023/07/07 08:03:05.546, True, 0.663, 0.163272
2023/07/07 08:03:06.050, True, 0.664, 0.160601
2023/07/07 08:03:06.554, True, 0.663, 0.162737
2023/07/07 08:03:07.050, True, 0.674, 0.162814
2023/07/07 08:03:07.554, True, 0.664, 0.162203
2023/07/07 08:03:08.050, True, 0.674, 0.161975
2023/07/07 08:03:08.554, True, 0.663, 0.160830
2023/07/07 08:03:09.058, True, 0.664, 0.161517
2023/07/07 08:03:09.562, True, 0.663, 0.163424
2023/07/07 08:03:10.058, True, 0.674, 0.161898
2023/07/07 08:03:10.562, True, 0.664, 0.163043
2023/07/07 08:03:11.058, True, 1.011, 0.163348
2023/07/07 08:03:11.562, True, 0.662, 0.161364
2023/07/07 08:03:12.066, True, 0.664, 0.162509
2023/07/07 08:03:12.562, True, 0.673, 0.162356
2023/07/07 08:03:13.066, True, 0.664, 0.164492
2023/07/07 08:03:13.570, True, 0.663, 0.163500
2023/07/07 08:03:14.066, True, 0.674, 0.161975
2023/07/07 08:03:14.570, True, 0.663, 0.162203
2023/07/07 08:03:15.074, True, 0.995, 0.161364
2023/07/07 08:03:15.570, True, 0.674, 0.161746
2023/07/07 08:03:16.074, True, 0.663, 0.163195
2023/07/07 08:03:16.578, True, 0.663, 0.162661
2023/07/07 08:03:17.074, True, 0.674, 0.162585
2023/07/07 08:03:17.578, True, 0.664, 0.161059
2023/07/07 08:03:18.082, True, 0.663, 0.163882
2023/07/07 08:03:18.578, True, 0.674, 0.162814
2023/07/07 08:03:19.082, True, 0.663, 0.162280
2023/07/07 08:03:19.586, True, 0.663, 0.163958
2023/07/07 08:03:20.082, True, 0.674, 0.164492
2023/07/07 08:03:20.586, True, 0.995, 0.162280
2023/07/07 08:03:21.090, True, 0.663, 0.160372
2023/07/07 08:03:21.586, True, 0.674, 0.161898
2023/07/07 08:03:22.090, True, 0.663, 0.163882
2023/07/07 08:03:22.586, True, 0.674, 0.161517
2023/07/07 08:03:23.090, True, 0.665, 0.163500
2023/07/07 08:03:23.593, True, 0.662, 0.162890
2023/07/07 08:03:24.090, True, 0.674, 0.163424
2023/07/07 08:03:24.594, True, 0.663, 0.164340
2023/07/07 08:03:25.098, True, 0.663, 0.162203
2023/07/07 08:03:25.594, True, 0.674, 0.164187
2023/07/07 08:03:26.098, True, 0.663, 0.162280
2023/07/07 08:03:26.602, True, 0.664, 0.162814
2023/07/07 08:03:27.098, True, 0.673, 0.163958
2023/07/07 08:03:27.602, True, 0.664, 0.164263
2023/07/07 08:03:28.106, True, 0.663, 0.161440
2023/07/07 08:03:28.602, True, 0.674, 0.161440
2023/07/07 08:03:29.106, True, 0.995, 0.163043
2023/07/07 08:03:29.610, True, 0.663, 0.162280
2023/07/07 08:03:30.106, True, 0.675, 0.162661
2023/07/07 08:03:30.610, True, 0.662, 0.161440
2023/07/07 08:03:31.114, True, 0.664, 0.163119
2023/07/07 08:03:31.610, True, 0.673, 0.162966
2023/07/07 08:03:32.114, True, 0.663, 0.162203
2023/07/07 08:03:32.618, True, 0.663, 0.162051
2023/07/07 08:03:33.114, True, 0.674, 0.162432
2023/07/07 08:03:33.618, True, 0.663, 0.161669
2023/07/07 08:03:34.122, True, 0.995, 0.160296
2023/07/07 08:03:34.618, True, 0.674, 0.161212
2023/07/07 08:03:35.122, True, 0.663, 0.162737
2023/07/07 08:03:35.626, True, 0.663, 0.162203
2023/07/07 08:03:36.122, True, 0.674, 0.161135
2023/07/07 08:03:36.626, True, 0.664, 0.161898
2023/07/07 08:03:37.130, True, 0.662, 0.163043
2023/07/07 08:03:37.626, True, 0.674, 0.163882
2023/07/07 08:03:38.130, True, 0.663, 0.163195
2023/07/07 08:03:38.633, True, 0.663, 0.160830
2023/07/07 08:03:39.130, True, 1.011, 0.163043
2023/07/07 08:03:39.634, True, 0.663, 0.162814
2023/07/07 08:03:40.138, True, 0.663, 0.161212
2023/07/07 08:03:40.634, True, 0.674, 0.163195
2023/07/07 08:03:41.138, True, 0.663, 0.164263
2023/07/07 08:03:41.642, True, 0.663, 0.164111
2023/07/07 08:03:42.138, True, 0.674, 0.161059
2023/07/07 08:03:42.642, True, 0.663, 0.162814
2023/07/07 08:03:43.146, True, 0.996, 0.161593
2023/07/07 08:03:43.642, True, 0.673, 0.162509
2023/07/07 08:03:44.146, True, 0.663, 0.160678
2023/07/07 08:03:44.650, True, 0.663, 0.161898
2023/07/07 08:03:45.146, True, 0.675, 0.160983
2023/07/07 08:03:45.649, True, 0.662, 0.162737
2023/07/07 08:03:46.145, True, 0.674, 0.160983
2023/07/07 08:03:46.650, True, 0.663, 0.162432
2023/07/07 08:03:47.153, True, 0.995, 0.159991
2023/07/07 08:03:47.649, True, 0.674, 0.163653
2023/07/07 08:03:48.154, True, 0.663, 0.162585
2023/07/07 08:03:48.658, True, 0.664, 0.160525
2023/07/07 08:03:49.154, True, 0.673, 0.161975
2023/07/07 08:03:49.658, True, 0.663, 0.160601
2023/07/07 08:03:50.162, True, 0.664, 0.160754
2023/07/07 08:03:50.658, True, 0.675, 0.163272
2023/07/07 08:03:51.161, True, 0.662, 0.163348
2023/07/07 08:03:51.666, True, 0.996, 0.161059
2023/07/07 08:03:52.162, True, 0.673, 0.160830
2023/07/07 08:03:52.666, True, 0.663, 0.162585
2023/07/07 08:03:53.170, True, 0.663, 0.161440
2023/07/07 08:03:53.665, True, 0.675, 0.160525
2023/07/07 08:03:54.170, True, 0.663, 0.162661
2023/07/07 08:03:54.666, True, 0.673, 0.161593
2023/07/07 08:03:55.170, True, 0.665, 0.162509
2023/07/07 08:03:55.674, True, 0.662, 0.162890
2023/07/07 08:03:56.178, True, 0.663, 0.161517
2023/07/07 08:03:56.674, True, 0.675, 0.160983
2023/07/07 08:03:57.178, True, 0.662, 0.160830
2023/07/07 08:03:57.682, True, 0.663, 0.162585
2023/07/07 08:03:58.178, True, 0.674, 0.160830
2023/07/07 08:03:58.682, True, 0.663, 0.159457
2023/07/07 08:03:59.186, True, 0.996, 0.162280
2023/07/07 08:03:59.681, True, 0.674, 0.162814
2023/07/07 08:04:00.186, True, 0.663, 0.161364
2023/07/07 08:04:00.690, True, 0.664, 0.162356
2023/07/07 08:04:01.186, True, 0.675, 0.161898
2023/07/07 08:04:01.690, True, 0.662, 0.162051
2023/07/07 08:04:02.194, True, 0.664, 0.161288
2023/07/07 08:04:02.690, True, 0.673, 0.163348
2023/07/07 08:04:03.194, True, 0.663, 0.164263
2023/07/07 08:04:03.698, True, 0.663, 0.161822
2023/07/07 08:04:04.194, True, 0.674, 0.160983
2023/07/07 08:04:04.698, True, 0.663, 0.162585
2023/07/07 08:04:05.202, True, 0.664, 0.161288
2023/07/07 08:04:05.698, True, 0.673, 0.163043
2023/07/07 08:04:06.202, True, 0.995, 0.162051
2023/07/07 08:04:06.706, True, 0.663, 0.163500
2023/07/07 08:04:07.210, True, 0.664, 0.161212
2023/07/07 08:04:07.706, True, 0.673, 0.159838
2023/07/07 08:04:08.210, True, 0.663, 0.160449
2023/07/07 08:04:08.714, True, 0.663, 0.160067
2023/07/07 08:04:09.210, True, 0.674, 0.161212
2023/07/07 08:04:09.714, True, 0.663, 0.161669
2023/07/07 08:04:10.218, True, 0.995, 0.162814
2023/07/07 08:04:10.714, True, 0.674, 0.160678
2023/07/07 08:04:11.218, True, 0.332, 0.160830